period_start,C,m1,H,J0,J1,J2,J3,J4,J5,JA,JB,JC,JD,JJ,JK,JN,#
2013-12-27 00:00:54,0.13,4.74,0.00,26.34,27.85,30.59,6.13,30.71,1021.50,2035.00,2053.79,2199.47,2401.99,350.86,322.69,16.42,0000 0000 0000 0000 000000
2013-12-27 00:01:54,0.33,4.74,0.00,26.34,27.85,30.58,6.02,30.58,1021.50,2035.00,2053.32,2199.17,2401.54,350.13,322.07,16.43,0000 0000 0000 0000 000000
2013-12-27 00:02:55,0.34,4.74,0.00,26.36,27.85,30.58,5.90,30.50,1021.50,2035.00,2053.11,2199.06,2401.20,350.29,322.13,16.43,0000 0000 0000 0000 000000
2013-12-27 00:03:55,0.16,4.74,0.00,26.35,27.85,30.59,5.80,30.71,1021.50,2035.00,2052.90,2198.88,2401.06,350.72,322.54,16.44,0000 0000 0000 0000 000000
2013-12-27 00:04:55,0.20,4.75,0.00,26.33,27.85,30.62,5.87,30.83,1021.50,2035.00,2052.41,2198.42,2400.95,349.85,321.70,16.45,0000 0000 0000 0000 000000
2013-12-27 00:05:55,0.33,4.75,0.00,26.33,27.85,30.60,6.07,30.50,1021.50,2035.00,2052.15,2198.16,2400.51,350.42,322.32,16.45,0000 0000 0000 0000 000000
2013-12-27 00:06:56,0.27,4.75,0.00,26.35,27.85,30.59,6.15,30.63,1021.50,2035.00,2052.01,2198.05,2400.19,349.87,321.93,16.46,0000 0000 0000 0000 000000
2013-12-27 00:07:56,0.15,4.75,0.00,26.36,27.85,30.61,6.01,30.58,1021.50,2035.00,2051.58,2197.96,2400.07,350.47,321.98,16.46,0000 0000 0000 0000 000000
2013-12-27 00:08:56,0.20,4.75,0.00,26.33,27.85,30.62,6.08,30.54,1021.52,2035.00,2051.22,2197.61,2399.91,350.39,322.41,16.47,0000 0000 0000 0000 000000
2013-12-27 00:09:56,0.29,4.75,0.00,26.33,27.85,30.60,5.82,30.46,1021.50,2035.00,2051.07,2197.25,2399.48,349.09,321.29,16.47,0000 0000 0000 0000 000000
2013-12-27 00:10:57,0.28,4.75,0.00,26.35,27.85,30.63,6.01,30.50,1021.52,2035.00,2050.79,2197.09,2399.17,349.94,321.83,16.48,0000 0000 0000 0000 000000
2013-12-27 00:11:57,0.22,4.76,0.00,26.36,27.85,30.62,6.09,30.58,1021.52,2035.00,2050.31,2197.00,2399.04,350.39,322.18,16.49,0000 0000 0000 0000 000000
2013-12-27 00:12:57,0.18,4.76,0.00,26.33,27.85,30.61,5.84,30.38,1021.54,2035.00,2050.11,2196.76,2398.80,349.71,321.56,16.49,0000 0000 0000 0000 000000
2013-12-27 00:13:57,0.21,4.76,0.00,26.33,27.85,30.61,6.07,30.54,1021.60,2035.00,2049.96,2196.36,2398.34,350.76,322.64,16.50,0000 0000 0000 0000 000000
2013-12-27 00:14:57,0.29,4.76,0.00,26.37,27.85,30.56,6.08,30.50,1021.59,2035.00,2049.51,2196.14,2398.13,351.20,322.90,16.50,0000 0000 0000 0000 000000
2013-12-27 00:15:57,0.28,4.76,0.00,26.36,27.85,30.59,5.97,30.38,1021.56,2035.00,2049.18,2196.03,2398.01,349.34,321.29,16.51,0000 0000 0000 0000 000000
2013-12-27 00:16:58,0.16,4.76,0.00,26.37,27.85,30.57,5.95,30.50,1021.54,2035.00,2049.04,2195.83,2397.77,350.23,322.08,16.52,0000 0000 0000 0000 000000
2013-12-27 00:17:58,0.18,4.76,0.00,26.37,27.85,30.58,6.00,30.42,1021.53,2035.01,2048.69,2195.41,2397.32,349.92,321.80,16.52,0000 0000 0000 0000 000000
2013-12-27 00:18:58,0.39,4.77,0.00,26.34,27.85,30.57,6.04,30.54,1021.53,2035.00,2048.27,2195.15,2397.11,350.10,321.99,16.53,0000 0000 0000 0000 000000
2013-12-27 00:19:58,0.26,4.77,0.00,26.36,27.85,30.58,6.09,30.58,1021.57,2035.00,2048.06,2195.05,2397.00,350.83,322.66,16.53,0000 0000 0000 0000 000000
2013-12-27 00:20:59,0.14,4.77,0.00,26.35,27.85,30.58,5.75,30.50,1021.61,2035.00,2047.63,2194.98,2396.89,349.09,321.08,16.54,0000 0000 0000 0000 000000
2013-12-27 00:21:59,0.17,4.77,0.00,26.37,27.85,30.58,5.76,30.46,1021.64,2035.00,2047.24,2194.65,2396.47,349.02,321.01,16.55,0000 0000 0000 0000 000000
2013-12-27 00:22:59,0.35,4.77,0.00,26.36,27.85,30.59,5.83,30.33,1021.59,2035.00,2047.08,2194.27,2396.17,349.41,321.36,16.55,0000 0000 0000 0000 000000
2013-12-27 00:23:59,0.23,4.77,0.00,26.35,27.85,30.56,6.13,30.54,1021.58,2035.00,2047.01,2194.09,2396.05,349.92,321.83,16.56,0000 0000 0000 0000 000000
2013-12-27 00:25:00,0.12,4.77,0.00,26.35,27.85,30.55,5.84,30.63,1021.56,2035.00,2046.62,2193.98,2395.75,349.23,321.25,16.56,0000 0000 0000 0000 000000
2013-12-27 00:26:00,0.24,4.77,0.00,26.36,27.85,30.57,5.74,30.46,1021.61,2035.00,2046.23,2193.60,2395.33,349.07,321.05,16.57,0000 0000 0000 0000 000000
2013-12-27 00:27:00,0.35,4.78,0.00,26.36,27.85,30.56,5.95,30.63,1021.63,2035.00,2046.08,2193.23,2395.12,349.33,321.73,16.57,0000 0000 0000 0000 000000
2013-12-27 00:28:00,0.20,4.78,0.00,26.36,27.85,30.55,5.77,30.42,1021.65,2035.00,2045.82,2193.08,2395.03,349.91,321.84,16.58,0000 0000 0000 0000 000000
2013-12-27 00:29:01,0.16,4.78,0.00,26.35,27.85,30.58,5.85,30.33,1021.63,2035.00,2045.34,2193.02,2394.76,349.63,321.50,16.59,0000 0000 0000 0000 000000
2013-12-27 00:30:01,0.23,4.78,0.00,26.35,27.85,30.56,5.88,30.75,1021.59,2035.00,2045.12,2192.79,2394.34,350.42,322.69,16.59,0000 0000 0000 0000 000000
2013-12-27 00:31:01,0.26,4.78,0.00,26.35,27.85,30.59,5.97,30.54,1021.52,2035.00,2044.89,2192.33,2394.12,350.02,321.77,16.60,0000 0000 0000 0000 000000
2013-12-27 00:32:01,0.29,4.78,0.00,26.38,27.85,30.58,5.72,30.50,1021.55,2035.00,2044.40,2192.11,2393.99,349.39,321.46,16.60,0000 0000 0000 0000 000000
2013-12-27 00:33:01,0.24,4.79,0.00,26.38,27.85,30.60,5.84,30.50,1021.53,2035.00,2044.15,2192.02,2393.65,349.94,321.80,16.61,0000 0000 0000 0000 000000
2013-12-27 00:34:02,0.20,4.79,0.00,26.36,27.85,30.61,5.94,30.71,1021.55,2035.00,2044.01,2191.86,2393.25,349.71,321.62,16.62,0000 0000 0000 0000 000000
2013-12-27 00:35:02,0.17,4.79,0.00,26.36,27.85,30.61,5.88,30.71,1021.60,2035.00,2043.56,2191.40,2393.08,349.97,321.88,16.62,0000 0000 0000 0000 000000
2013-12-27 00:36:02,0.39,4.79,0.00,26.34,27.85,30.61,5.88,30.63,1021.58,2035.00,2043.20,2191.15,2392.97,349.47,321.43,16.63,0000 0000 0000 0000 000000
2013-12-27 00:37:02,0.20,4.79,0.00,26.35,27.85,30.61,6.00,30.58,1021.57,2035.00,2043.06,2191.05,2392.53,350.96,322.75,16.63,0000 0000 0000 0000 000000
2013-12-27 00:38:02,0.18,4.79,0.00,26.35,27.85,30.58,5.80,30.71,1021.57,2035.00,2042.81,2190.93,2392.21,350.60,322.11,16.64,0000 0000 0000 0000 000000
2013-12-27 00:39:03,0.18,4.79,0.00,26.36,27.85,30.58,6.07,30.63,1021.58,2035.00,2042.37,2190.46,2392.07,350.51,322.34,16.64,0000 0000 0000 0000 000000
2013-12-27 00:40:03,0.38,4.80,0.00,26.34,27.85,30.59,5.77,30.71,1021.56,2035.00,2042.13,2190.17,2391.97,350.22,322.27,16.65,0000 0000 0000 0000 000000
2013-12-27 00:41:03,0.18,4.80,0.00,26.37,27.85,30.61,6.12,30.71,1021.54,2035.00,2041.84,2190.05,2391.57,350.10,321.97,16.66,0000 0000 0000 0000 000000
2013-12-27 00:42:03,0.24,4.80,0.00,26.39,27.85,30.60,5.94,30.46,1021.55,2035.00,2041.34,2189.88,2391.21,349.72,321.60,16.66,0000 0000 0000 0000 000000
2013-12-27 00:43:03,0.30,4.80,0.00,26.39,27.85,30.59,5.88,30.38,1021.52,2035.00,2041.12,2189.54,2391.07,350.84,322.47,16.67,0000 0000 0000 0000 000000
2013-12-27 00:44:04,0.23,4.80,0.00,26.39,27.85,30.61,5.82,30.50,1021.53,2035.00,2040.97,2189.20,2390.96,350.05,321.88,16.67,0000 0000 0000 0000 000000
2013-12-27 00:45:04,0.16,4.80,0.00,26.39,27.85,30.61,6.11,30.50,1021.51,2035.00,2040.52,2189.07,2390.51,350.86,322.64,16.68,0000 0000 0000 0000 000000
2013-12-27 00:46:04,0.33,4.80,0.00,26.38,27.85,30.59,6.03,30.63,1021.51,2035.00,2040.20,2188.97,2390.19,350.35,322.18,16.69,0000 0000 0000 0000 000000
2013-12-27 00:47:04,0.19,4.81,0.00,26.36,27.85,30.61,5.83,30.58,1021.50,2035.00,2040.07,2188.72,2390.07,350.23,322.08,16.69,0000 0000 0000 0000 000000
2013-12-27 00:48:04,0.16,4.81,0.00,26.37,27.85,30.61,6.22,30.46,1021.52,2035.00,2039.83,2188.31,2389.90,351.34,323.09,16.70,0000 0000 0000 0000 000000
2013-12-27 00:49:04,0.29,4.81,0.00,26.38,27.85,30.59,5.80,30.42,1021.52,2035.00,2039.37,2188.11,2389.49,349.20,321.15,16.70,0000 0000 0000 0000 000000
2013-12-27 00:50:05,0.31,4.81,0.00,26.39,27.85,30.60,6.00,30.42,1021.51,2035.01,2039.14,2188.03,2389.20,350.75,322.53,16.71,0000 0000 0000 0000 000000
2013-12-27 00:51:05,0.16,4.81,0.00,26.39,27.85,30.58,5.81,30.50,1021.51,2035.00,2039.00,2187.86,2389.06,349.14,321.05,16.72,0000 0000 0000 0000 000000
2013-12-27 00:52:05,0.10,4.81,0.00,26.38,27.85,30.58,5.76,30.42,1021.51,2035.00,2038.53,2187.39,2388.77,349.09,320.90,16.72,0000 0000 0000 0000 000000
2013-12-27 00:53:05,0.45,4.81,0.00,26.37,27.85,30.57,5.92,30.58,1021.51,2035.00,2038.19,2187.14,2388.33,350.23,321.86,16.73,0000 0000 0000 0000 000000
2013-12-27 00:54:05,0.27,4.82,0.00,26.37,27.85,30.59,5.96,30.42,1021.50,2035.00,2038.03,2187.04,2388.12,350.92,322.71,16.73,0000 0000 0000 0000 000000
2013-12-27 00:55:06,0.12,4.82,0.00,26.38,27.85,30.59,6.17,30.58,1021.51,2035.00,2037.57,2186.86,2388.02,350.99,322.76,16.74,0000 0000 0000 0000 000000
2013-12-27 00:56:06,0.24,4.82,0.00,26.38,27.85,30.60,6.07,30.46,1021.51,2035.00,2037.21,2186.41,2387.77,350.11,321.77,16.74,0000 0000 0000 0000 000000
2013-12-27 00:57:06,0.35,4.82,0.00,26.41,27.86,30.58,6.13,30.63,1021.52,2035.00,2037.07,2186.15,2387.36,351.26,322.63,16.75,0000 0000 0000 0000 000000
2013-12-27 00:58:06,0.23,4.82,0.00,26.40,27.86,30.61,5.94,30.46,1021.52,2035.00,2036.74,2186.04,2387.13,350.90,322.44,16.76,0000 0000 0000 0000 000000
2013-12-27 00:59:07,0.20,4.82,0.00,26.41,27.86,30.61,6.05,30.54,1021.57,2034.99,2036.31,2185.93,2387.03,349.79,321.67,16.76,0000 0000 0000 0000 000000
2013-12-27 01:00:07,0.16,4.82,0.00,26.39,27.86,30.61,6.01,30.63,1021.53,2034.99,2036.11,2185.52,2386.72,350.06,321.81,16.77,0000 0000 0000 0000 000000
2013-12-27 01:01:07,0.33,4.83,0.00,26.38,27.86,30.61,5.76,30.42,1021.55,2034.99,2035.98,2185.20,2386.28,350.85,322.65,16.77,0000 0000 0000 0000 000000
2013-12-27 01:02:08,0.24,4.83,0.00,26.37,27.87,30.59,6.00,30.58,1021.58,2034.99,2035.50,2185.07,2386.10,349.75,321.66,16.78,0000 0000 0000 0000 000000
2013-12-27 01:03:08,0.25,4.83,0.00,26.41,27.87,30.61,5.93,30.50,1021.56,2034.98,2035.18,2184.99,2386.00,350.28,322.09,16.79,0000 0000 0000 0000 000000
2013-12-27 01:04:08,0.13,4.83,0.00,26.41,27.87,30.59,5.83,30.46,1021.55,2034.99,2035.04,2184.76,2385.70,349.32,321.20,16.79,0000 0000 0000 0000 000000
2013-12-27 01:05:08,0.20,4.83,0.00,26.42,27.87,30.61,5.75,30.54,1021.57,2034.99,2034.65,2184.33,2385.29,350.07,321.90,16.80,0000 0000 0000 0000 000000
2013-12-27 01:06:09,0.41,4.83,0.00,26.41,27.87,30.60,5.98,30.67,1021.57,2034.99,2034.24,2184.11,2385.10,350.58,322.38,16.80,0000 0000 0000 0000 000000
2013-12-27 01:07:09,0.24,4.83,0.00,26.42,27.87,30.60,6.02,30.50,1021.58,2034.98,2034.07,2184.03,2385.02,350.40,322.20,16.81,0000 0000 0000 0000 000000
2013-12-27 01:08:09,0.08,4.83,0.00,26.39,27.87,30.61,5.88,30.29,1021.63,2034.98,2033.82,2183.90,2384.70,350.16,322.20,16.81,0000 0000 0000 0000 000000
2013-12-27 01:09:10,0.19,4.84,0.00,26.39,27.87,30.60,5.99,30.54,1021.71,2034.99,2033.37,2183.48,2384.29,349.55,321.49,16.82,0000 0000 0000 0000 000000
2013-12-27 01:10:10,0.42,4.84,0.00,26.37,27.87,30.60,5.99,30.46,1021.80,2034.99,2033.14,2183.18,2384.10,350.14,322.08,16.83,0000 0000 0000 0000 000000
2013-12-27 01:11:10,0.21,4.84,0.00,26.39,27.87,30.61,5.78,30.46,1021.81,2034.99,2032.98,2183.06,2384.02,348.82,320.85,16.83,0000 0000 0000 0000 000000
2013-12-27 01:12:10,0.12,4.84,0.00,26.41,27.87,30.62,5.92,30.54,1021.73,2034.98,2032.49,2182.95,2383.69,349.50,321.66,16.84,0000 0000 0000 0000 000000
2013-12-27 01:13:11,0.28,4.84,0.00,26.41,27.87,30.60,5.98,30.46,1021.71,2034.98,2032.18,2182.53,2383.29,350.38,321.78,16.84,0000 0000 0000 0000 000000
2013-12-27 01:14:11,0.35,4.84,0.00,26.38,27.87,30.57,6.08,30.50,1021.73,2034.99,2032.06,2182.21,2383.11,350.78,322.91,16.85,0000 0000 0000 0000 000000
2013-12-27 01:15:11,0.17,4.85,0.00,26.41,27.87,30.56,5.98,30.54,1021.75,2034.99,2031.95,2182.08,2383.03,349.77,321.99,16.86,0000 0000 0000 0000 000000
2013-12-27 01:16:11,0.12,4.85,0.00,26.41,27.87,30.59,5.77,30.42,1021.77,2034.99,2031.52,2182.01,2382.66,349.18,321.15,16.86,0000 0000 0000 0000 000000
2013-12-27 01:17:11,0.26,4.85,0.00,26.42,27.87,30.60,5.83,30.50,1021.80,2034.98,2031.20,2181.74,2382.26,349.70,321.18,16.87,0000 0000 0000 0000 000000
2013-12-27 01:18:12,0.27,4.85,0.00,26.44,27.87,30.59,5.81,30.42,1021.78,2034.95,2031.06,2181.34,2382.08,349.75,321.64,16.87,0000 0000 0000 0000 000000
2013-12-27 01:19:12,0.21,4.85,0.00,26.40,27.87,30.59,6.06,30.63,1021.81,2034.97,2030.70,2181.12,2381.93,350.19,322.10,16.88,0000 0000 0000 0000 000000
2013-12-27 01:20:12,0.25,4.85,0.00,26.40,27.87,30.58,6.20,30.50,1021.86,2034.98,2030.28,2181.04,2381.60,350.38,322.48,16.88,0000 0000 0000 0000 000000
2013-12-27 01:21:12,0.24,4.85,0.00,26.41,27.87,30.62,6.09,30.50,1021.87,2034.99,2030.09,2180.88,2381.24,350.25,321.76,16.89,0000 0000 0000 0000 000000
2013-12-27 01:22:13,0.21,4.85,0.00,26.42,27.87,30.63,5.84,30.38,1021.93,2034.99,2029.90,2180.48,2381.08,350.43,322.34,16.90,0000 0000 0000 0000 000000
2013-12-27 01:23:13,0.25,4.86,0.00,26.42,27.87,30.61,6.12,30.46,1021.98,2034.99,2029.49,2180.21,2381.02,350.32,322.25,16.90,0000 0000 0000 0000 000000
2013-12-27 01:24:13,0.25,4.86,0.00,26.41,27.87,30.62,6.08,30.25,1021.98,2034.99,2029.18,2180.07,2380.72,350.79,322.69,16.91,0000 0000 0000 0000 000000
2013-12-27 01:25:13,0.21,4.86,0.00,26.40,27.87,30.65,6.10,30.42,1021.99,2034.99,2028.94,2179.98,2380.28,349.65,321.77,16.91,0000 0000 0000 0000 000000
2013-12-27 01:26:14,0.21,4.86,0.00,26.42,27.87,30.62,6.10,30.58,1021.99,2034.99,2028.40,2179.58,2380.10,351.27,323.14,16.92,0000 0000 0000 0000 000000
2013-12-27 01:27:14,0.37,4.86,0.00,26.42,27.87,30.62,5.95,30.54,1021.99,2034.98,2028.14,2179.21,2380.01,349.90,321.88,16.93,0000 0000 0000 0000 000000
2013-12-27 01:28:14,0.22,4.86,0.00,26.43,27.87,30.63,5.90,30.58,1021.99,2034.97,2028.01,2179.08,2379.72,350.25,322.18,16.93,0000 0000 0000 0000 000000
2013-12-27 01:29:14,0.16,4.86,0.00,26.43,27.87,30.63,5.76,30.54,1021.99,2034.98,2027.66,2179.01,2379.29,349.19,321.35,16.94,0000 0000 0000 0000 000000
2013-12-27 01:30:15,0.24,4.87,0.00,26.41,27.87,30.63,6.00,30.58,1021.99,2034.97,2027.24,2178.75,2379.10,350.09,322.05,16.94,0000 0000 0000 0000 000000
2013-12-27 01:31:15,0.25,4.87,0.00,26.42,27.87,30.61,5.86,30.50,1021.97,2034.97,2027.08,2178.34,2379.01,349.63,321.62,16.95,0000 0000 0000 0000 000000
2013-12-27 01:32:15,0.23,4.87,0.00,26.42,27.87,30.61,5.83,30.38,1021.97,2034.97,2027.01,2178.15,2378.68,349.52,321.52,16.96,0000 0000 0000 0000 000000
2013-12-27 01:33:15,0.21,4.87,0.00,26.43,27.87,30.63,5.73,30.21,1021.97,2034.97,2026.65,2178.05,2378.28,349.76,321.86,16.96,0000 0000 0000 0000 000000
2013-12-27 01:34:16,0.23,4.87,0.00,26.42,27.87,30.61,5.89,30.46,1021.93,2034.97,2026.27,2177.97,2378.10,350.17,322.09,16.97,0000 0000 0000 0000 000000
2013-12-27 01:35:16,0.19,4.87,0.00,26.41,27.87,30.61,6.17,30.50,1021.91,2034.99,2026.10,2177.76,2378.01,350.65,322.54,16.97,0000 0000 0000 0000 000000
2013-12-27 01:36:16,0.19,4.87,0.00,26.40,27.88,30.59,6.03,30.46,1021.87,2034.99,2025.94,2177.38,2377.64,350.22,322.31,16.98,0000 0000 0000 0000 000000
2013-12-27 01:37:16,0.28,4.88,0.00,26.40,27.88,30.57,5.93,30.38,1021.88,2034.98,2025.54,2177.14,2377.26,350.94,322.79,16.98,0000 0000 0000 0000 000000
2013-12-27 01:38:17,0.29,4.88,0.00,26.40,27.88,30.58,6.02,30.54,1021.89,2034.98,2025.20,2177.03,2377.09,350.77,322.80,16.99,0000 0000 0000 0000 000000
2013-12-27 01:39:17,0.20,4.88,0.00,26.41,27.88,30.61,5.92,30.46,1021.93,2034.99,2025.04,2176.71,2376.95,349.69,321.43,17.00,0000 0000 0000 0000 000000
2013-12-27 01:40:17,0.20,4.88,0.00,26.42,27.88,30.59,5.91,30.50,1021.89,2034.98,2024.75,2176.29,2376.56,349.54,321.50,17.00,0000 0000 0000 0000 000000
2013-12-27 01:41:17,0.32,4.88,0.00,26.41,27.89,30.61,5.88,30.33,1021.87,2034.98,2024.32,2176.11,2376.22,348.94,320.95,17.01,0000 0000 0000 0000 000000
2013-12-27 01:42:18,0.28,4.88,0.00,26.40,27.89,30.63,5.82,30.21,1021.88,2034.99,2024.10,2176.03,2376.08,349.11,321.13,17.01,0000 0000 0000 0000 000000
2013-12-27 01:43:18,0.14,4.88,0.00,26.39,27.89,30.61,5.73,30.17,1021.87,2034.98,2023.94,2175.95,2375.99,349.74,321.71,17.02,0000 0000 0000 0000 000000
2013-12-27 01:44:18,0.11,4.88,0.00,26.39,27.89,30.61,5.87,30.29,1021.87,2034.98,2023.47,2175.60,2375.71,349.59,321.97,17.03,0000 0000 0000 0000 000000
2013-12-27 01:45:18,0.33,4.89,0.00,26.38,27.89,30.64,5.94,30.33,1021.86,2034.98,2023.17,2175.23,2375.32,350.07,322.02,17.03,0000 0000 0000 0000 000000
2013-12-27 01:46:19,0.34,4.89,0.00,26.41,27.90,30.64,6.03,30.46,1021.89,2034.95,2022.96,2175.08,2375.11,349.84,321.80,17.04,0000 0000 0000 0000 000000
2013-12-27 01:47:19,0.16,4.89,0.00,26.40,27.90,30.64,5.88,30.21,1021.95,2034.96,2022.45,2175.03,2375.02,350.03,321.99,17.04,0000 0000 0000 0000 000000
2013-12-27 01:48:19,0.18,4.89,0.00,26.42,27.90,30.62,5.84,30.42,1021.97,2034.96,2022.18,2174.88,2374.81,350.28,322.21,17.05,0000 0000 0000 0000 000000
2013-12-27 01:49:19,0.19,4.89,0.00,26.43,27.90,30.62,5.80,30.42,1021.99,2034.96,2022.01,2174.45,2374.35,350.77,322.66,17.05,0000 0000 0000 0000 000000
2013-12-27 01:50:20,0.33,4.89,0.00,26.43,27.90,30.62,6.05,30.54,1021.99,2034.98,2021.60,2174.16,2374.13,350.35,322.27,17.06,0000 0000 0000 0000 000000
2013-12-27 01:51:20,0.28,4.90,0.00,26.41,27.90,30.62,5.82,30.42,1021.99,2034.95,2021.23,2174.05,2374.03,349.97,321.94,17.07,0000 0000 0000 0000 000000
2013-12-27 01:52:20,0.16,4.90,0.00,26.40,27.90,30.62,5.76,30.50,1021.99,2034.97,2021.08,2173.94,2373.87,349.38,321.41,17.07,0000 0000 0000 0000 000000
2013-12-27 01:53:20,0.16,4.90,0.00,26.40,27.90,30.65,5.99,30.58,1021.99,2034.97,2020.87,2173.61,2373.41,350.59,322.52,17.08,0000 0000 0000 0000 000000
2013-12-27 01:54:21,0.28,4.90,0.00,26.40,27.90,30.65,6.02,30.46,1021.99,2034.97,2020.42,2173.26,2373.15,350.58,322.82,17.08,0000 0000 0000 0000 000000
2013-12-27 01:55:21,0.34,4.90,0.00,26.39,27.90,30.66,6.07,30.58,1021.99,2034.97,2020.16,2173.09,2373.05,350.75,322.56,17.09,0000 0000 0000 0000 000000
2013-12-27 01:56:21,0.15,4.90,0.00,26.41,27.90,30.64,6.05,30.50,1021.99,2034.96,2020.05,2173.03,2372.97,350.88,322.84,17.10,0000 0000 0000 0000 000000
2013-12-27 01:57:22,0.11,4.90,0.00,26.41,27.90,30.63,6.09,30.50,1021.99,2034.97,2019.69,2172.90,2372.54,350.60,322.76,17.10,0000 0000 0000 0000 000000
2013-12-27 01:58:22,0.28,4.90,0.00,26.44,27.90,30.63,5.98,30.38,1021.99,2034.97,2019.29,2172.49,2372.21,349.83,321.78,17.11,0000 0000 0000 0000 000000
2013-12-27 01:59:22,0.34,4.91,0.00,26.42,27.90,30.65,6.13,30.42,1021.99,2034.97,2019.10,2172.18,2372.07,350.91,322.93,17.11,0000 0000 0000 0000 000000
2013-12-27 02:00:22,0.18,4.91,0.00,26.42,27.90,30.66,5.83,30.38,1021.99,2034.95,2018.95,2172.06,2371.88,350.07,322.31,17.12,0000 0000 0000 0000 000000
2013-12-27 02:01:23,0.14,4.91,0.00,26.41,27.90,30.65,5.86,30.42,1021.99,2034.95,2018.53,2172.02,2371.41,349.51,321.53,17.13,0000 0000 0000 0000 000000
2013-12-27 02:02:23,0.26,4.91,0.00,26.41,27.90,30.64,5.92,30.38,1021.99,2034.97,2018.19,2171.80,2371.15,349.78,321.77,17.13,0000 0000 0000 0000 000000
2013-12-27 02:03:23,0.25,4.91,0.00,26.43,27.90,30.67,5.82,30.29,1021.99,2034.96,2018.07,2171.38,2371.05,350.35,322.28,17.14,0000 0000 0000 0000 000000
2013-12-27 02:04:24,0.24,4.91,0.00,26.42,27.90,30.64,5.77,30.25,1021.99,2034.97,2017.88,2171.15,2370.90,349.42,321.43,17.14,0000 0000 0000 0000 000000
2013-12-27 02:05:24,0.21,4.91,0.00,26.41,27.90,30.65,5.74,30.42,1021.99,2034.97,2017.38,2171.05,2370.45,349.65,321.66,17.15,0000 0000 0000 0000 000000
2013-12-27 02:06:24,0.28,4.92,0.00,26.39,27.90,30.67,5.82,30.38,1021.98,2034.96,2017.14,2170.90,2370.18,349.89,321.89,17.15,0000 0000 0000 0000 000000
2013-12-27 02:07:24,0.20,4.92,0.00,26.39,27.90,30.65,6.06,30.38,1021.99,2034.92,2017.00,2170.45,2370.03,349.64,321.66,17.16,0000 0000 0000 0000 000000
2013-12-27 02:08:25,0.22,4.92,0.00,26.39,27.90,30.64,6.08,30.42,1021.99,2034.90,2016.58,2170.16,2369.80,350.17,322.15,17.17,0000 0000 0000 0000 000000
2013-12-27 02:09:25,0.26,4.92,0.00,26.41,27.90,30.67,5.99,30.38,1021.97,2034.94,2016.22,2170.06,2369.39,350.62,322.54,17.17,0000 0000 0000 0000 000000
2013-12-27 02:10:25,0.27,4.92,0.00,26.42,27.90,30.69,5.94,30.33,1021.95,2034.95,2016.08,2169.98,2369.14,350.15,322.33,17.18,0000 0000 0000 0000 000000
2013-12-27 02:11:26,0.16,4.92,0.00,26.42,27.90,30.67,5.95,30.58,1021.91,2034.96,2015.92,2169.67,2369.04,350.85,322.42,17.18,0000 0000 0000 0000 000000
2013-12-27 02:12:26,0.21,4.92,0.00,26.41,27.90,30.67,5.98,30.46,1021.88,2034.96,2015.46,2169.29,2368.96,349.67,321.78,17.19,0000 0000 0000 0000 000000
2013-12-27 02:13:26,0.29,4.92,0.00,26.41,27.90,30.65,5.68,30.29,1021.92,2034.94,2015.17,2169.10,2368.56,349.29,321.29,17.20,0000 0000 0000 0000 000000
2013-12-27 02:14:26,0.23,4.93,0.00,26.43,27.90,30.64,6.12,30.58,1021.90,2034.94,2015.00,2169.04,2368.21,350.89,322.90,17.20,0000 0000 0000 0000 000000
2013-12-27 02:15:26,0.18,4.93,0.00,26.42,27.90,30.64,5.92,30.38,1021.89,2034.95,2014.70,2168.90,2368.07,349.57,321.53,17.21,0000 0000 0000 0000 000000
2013-12-27 02:16:27,0.20,4.93,0.00,26.39,27.90,30.66,5.91,30.29,1021.88,2034.93,2014.31,2168.44,2367.90,349.39,321.57,17.21,0000 0000 0000 0000 000000
2013-12-27 02:17:27,0.30,4.93,0.00,26.38,27.90,30.68,5.98,30.42,1021.76,2034.82,2014.09,2168.16,2367.46,350.24,322.16,17.22,0000 0000 0000 0000 000000
2013-12-27 02:18:27,0.20,4.93,0.00,26.38,27.91,30.68,5.95,30.29,1021.64,2034.78,2013.71,2168.06,2367.16,349.87,322.20,17.22,0000 0000 0000 0000 000000
2013-12-27 02:19:28,0.17,4.93,0.00,26.40,27.91,30.66,5.97,30.46,1021.67,2034.83,2013.27,2167.95,2367.06,349.81,321.70,17.23,0000 0000 0000 0000 000000
2013-12-27 02:20:28,0.25,4.93,0.00,26.42,27.91,30.67,6.07,30.42,1021.73,2034.85,2013.10,2167.53,2367.02,350.24,322.10,17.24,0000 0000 0000 0000 000000
2013-12-27 02:21:28,0.23,4.94,0.00,26.39,27.91,30.67,5.93,30.50,1021.81,2034.85,2012.94,2167.20,2366.92,350.19,321.64,17.24,0000 0000 0000 0000 000000
2013-12-27 02:22:28,0.22,4.94,0.00,26.39,27.91,30.64,6.00,30.29,1021.87,2034.80,2012.46,2167.07,2366.46,350.30,322.23,17.25,0000 0000 0000 0000 000000
2013-12-27 02:23:29,0.27,4.94,0.00,26.38,27.92,30.63,5.73,30.42,1021.86,2034.79,2012.17,2167.01,2366.17,349.25,321.28,17.25,0000 0000 0000 0000 000000
2013-12-27 02:24:29,0.17,4.94,0.00,26.38,27.92,30.65,5.98,30.29,1021.89,2034.75,2012.05,2166.78,2366.05,349.98,321.96,17.26,0000 0000 0000 0000 000000
2013-12-27 02:25:29,0.07,4.94,0.00,26.41,27.92,30.64,5.81,30.42,1021.90,2034.68,2011.74,2166.32,2365.90,350.40,322.13,17.27,0000 0000 0000 0000 000000
2013-12-27 02:26:30,0.27,4.94,0.00,26.41,27.92,30.66,5.93,30.42,1021.92,2034.77,2011.29,2166.11,2365.49,350.14,322.07,17.27,0000 0000 0000 0000 000000
2013-12-27 02:27:30,0.33,4.94,0.00,26.42,27.92,30.66,6.03,30.46,1021.95,2034.75,2011.10,2166.03,2365.19,350.19,321.96,17.28,0000 0000 0000 0000 000000
2013-12-27 02:28:30,0.14,4.94,0.00,26.43,27.92,30.66,5.86,30.46,1021.93,2034.72,2010.99,2165.94,2365.06,349.51,321.28,17.28,0000 0000 0000 0000 000000
2013-12-27 02:29:31,0.12,4.95,0.00,26.44,27.92,30.63,6.03,30.50,1021.88,2034.67,2010.56,2165.51,2364.94,350.30,322.17,17.29,0000 0000 0000 0000 000000
2013-12-27 02:30:31,0.27,4.95,0.00,26.44,27.92,30.68,6.05,30.54,1021.86,2034.69,2010.20,2165.21,2364.55,350.44,322.42,17.30,0000 0000 0000 0000 000000
2013-12-27 02:31:31,0.32,4.95,0.00,26.43,27.92,30.70,6.04,30.46,1021.85,2034.68,2010.04,2165.07,2364.21,350.85,322.95,17.30,0000 0000 0000 0000 000000
2013-12-27 02:32:31,0.18,4.95,0.00,26.42,27.92,30.67,5.84,30.50,1021.79,2034.62,2009.60,2164.99,2364.07,349.07,321.75,17.31,0000 0000 0000 0000 000000
2013-12-27 02:33:32,0.20,4.95,0.00,26.41,27.92,30.65,5.79,30.38,1021.66,2034.65,2009.23,2164.78,2364.02,349.95,321.83,17.31,0000 0000 0000 0000 000000
2013-12-27 02:34:32,0.22,4.95,0.00,26.41,27.92,30.65,5.96,30.88,1021.56,2034.62,2009.08,2164.36,2363.72,350.88,322.65,17.32,0000 0000 0000 0000 000000
2013-12-27 02:35:32,0.23,4.95,0.00,26.40,27.92,30.67,6.00,30.42,1021.57,2034.65,2008.98,2164.13,2363.30,350.58,321.50,17.32,0000 0000 0000 0000 000000
2013-12-27 02:36:33,0.26,4.96,0.00,26.41,27.92,30.65,5.97,30.67,1021.53,2034.70,2008.56,2164.04,2363.11,349.70,321.78,17.33,0000 0000 0000 0000 000000